TimePDT,TemperatureF,Dew PointF,Humidity,Sea Level PressureIn,VisibilityMPH,Wind Direction,Wind SpeedMPH,Gust SpeedMPH,PrecipitationIn,Events,Conditions,WindDirDegrees,DateUTC
12:53 AM,66.0,34.0,30,29.91,10.0,North,6.9,-,N/A,,Clear,360,2013-05-05 07:53:00
1:53 AM,64.0,36.0,35,29.90,10.0,NNE,4.6,-,N/A,,Clear,30,2013-05-05 08:53:00
2:53 AM,62.1,37.0,39,29.89,10.0,North,6.9,-,N/A,,Clear,10,2013-05-05 09:53:00
3:53 AM,55.0,39.0,55,29.88,10.0,WNW,3.5,-,N/A,,Clear,290,2013-05-05 10:53:00
4:53 AM,51.1,39.0,63,29.88,10.0,NW,3.5,-,N/A,,Clear,310,2013-05-05 11:53:00
5:53 AM,48.9,41.0,74,29.87,10.0,WSW,3.5,-,N/A,,Clear,240,2013-05-05 12:53:00
6:53 AM,51.1,43.0,74,29.88,10.0,Calm,Calm,-,N/A,,Clear,0,2013-05-05 13:53:00
7:53 AM,62.1,43.0,50,29.89,10.0,Calm,Calm,-,N/A,,Clear,0,2013-05-05 14:53:00
8:53 AM,70.0,39.0,32,29.88,10.0,Calm,Calm,-,N/A,,Clear,0,2013-05-05 15:53:00
9:53 AM,70.0,46.9,44,29.86,10.0,WNW,8.1,-,N/A,,Clear,290,2013-05-05 16:53:00
11:53 AM,79.0,37.0,22,29.83,10.0,East,12.7,21.9,N/A,,Clear,100,2013-05-05 18:53:00
12:53 PM,80.1,34.0,19,29.80,10.0,East,15.0,26.5,N/A,,Clear,100,2013-05-05 19:53:00
1:53 PM,82.0,36.0,19,29.78,10.0,ESE,17.3,27.6,N/A,,Clear,110,2013-05-05 20:53:00
2:53 PM,84.0,36.0,18,29.76,10.0,ESE,15.0,26.5,N/A,,Clear,110,2013-05-05 21:53:00
3:53 PM,84.0,34.0,17,29.74,10.0,East,15.0,28.8,N/A,,Clear,100,2013-05-05 22:53:00
4:53 PM,84.0,34.0,17,29.72,10.0,East,16.1,28.8,N/A,,Clear,100,2013-05-05 23:53:00
5:53 PM,84.0,35.1,17,29.71,10.0,ENE,10.4,23.0,N/A,,Clear,70,2013-05-06 00:53:00
6:53 PM,82.9,35.1,18,29.71,10.0,East,10.4,-,N/A,,Clear,80,2013-05-06 01:53:00
7:53 PM,81.0,35.1,19,29.71,10.0,East,6.9,-,N/A,,Clear,80,2013-05-06 02:53:00
8:53 PM,78.1,36.0,22,29.72,10.0,ENE,3.5,-,N/A,,Clear,60,2013-05-06 03:53:00
9:53 PM,64.9,43.0,45,29.74,10.0,Calm,Calm,-,N/A,,Clear,0,2013-05-06 04:53:00
10:53 PM,64.0,43.0,46,29.75,10.0,Calm,Calm,-,N/A,,Clear,0,2013-05-06 05:53:00
11:53 PM,59.0,44.1,58,29.77,10.0,Calm,Calm,-,N/A,,Clear,0,2013-05-06 06:53:00